Vorticity
13 13 12 10 10 9 8 9 11 11 14 13 11 13 9 10 9 4 4 14 14 4 5 -9 -14 -3 -4 -5 -4 -0 9 13 6 2 -8 -8 -4 2 17 3 -5 6 8 11 7 2 0 1 5 6 5 5 5 3 5 6 7 7 6 3 2 2 3 5 4 4 4 4 5 4 4 5 4 4 4 3 4 4 4 4 5 5 5 5 5 5 6 6 6 6 6 6 6 6 6 5 5
12 11 12 11 10 11 8 7 12 12 12 12 14 16 13 14 11 2 4 10 14 16 13 1 -4 2 7 5 5 0 -1 6 6 11 7 1 -1 -8 1 0 -6 6 13 9 9 5 1 1 1 4 4 5 5 5 4 4 5 5 6 5 4 3 3 4 5 5 5 5 5 4 4 4 3 3 3 3 4 4 4 4 5 5 5 5 5 5 5 6 5 6 6 6 6 6 6 6 5
9 10 10 10 9 11 11 7 10 11 9 9 11 14 10 7 13 7 2 5 -1 7 16 12 11 9 14 14 13 13 5 5 3 4 3 2 11 5 -6 -2 1 9 16 10 13 12 3 2 2 2 3 4 5 6 5 4 5 5 6 5 6 6 6 5 5 5 5 6 5 5 4 4 4 3 4 4 4 4 4 4 5 5 5 5 5 5 5 6 5 6 6 6 6 6 6 6 6
8 9 8 10 9 8 10 7 7 10 11 8 6 10 9 1 10 13 4 8 2 -6 -3 7 16 6 5 4 -1 4 4 8 5 5 8 1 9 15 5 6 5 7 16 11 5 9 6 2 4 4 2 4 5 6 6 5 5 6 6 5 6 8 9 7 4 5 5 6 5 5 5 5 5 4 5 5 5 5 5 5 5 5 5 5 4 5 5 6 6 6 6 6 6 6 6 6 6
5 7 7 8 8 7 8 8 5 8 14 12 8 3 6 6 3 11 14 9 6 9 3 -7 3 8 10 13 16 11 3 9 8 7 14 7 5 11 8 6 5 1 4 10 8 5 6 2 4 6 4 3 5 7 7 6 6 5 6 6 6 7 8 7 5 5 6 6 6 6 6 6 6 6 6 6 6 6 6 5 6 6 5 5 4 5 5 6 6 6 5 5 5 6 6 7 6
5 5 5 6 7 7 5 7 7 5 9 8 11 6 5 10 -1 -1 9 9 5 9 6 -9 -7 2 7 9 14 15 7 7 7 5 4 3 3 3 5 7 9 8 3 7 10 4 2 4 5 7 6 3 1 6 8 7 8 7 6 6 6 7 7 7 6 5 6 5 3 3 3 5 6 6 6 6 6 6 5 5 5 6 5 4 4 5 6 6 6 6 5 5 5 5 6 7 7
4 5 4 5 6 6 4 5 8 6 7 6 7 6 4 8 6 2 0 1 3 9 12 12 14 3 -3 -6 -8 0 2 5 10 11 2 -3 1 2 6 7 2 9 21 15 11 7 -1 2 5 7 8 5 2 2 5 6 6 8 6 6 6 7 7 6 5 5 5 3 2 4 3 4 5 5 6 6 7 6 5 6 6 6 5 4 5 5 5 6 6 6 5 5 5 5 6 7 7
4 5 4 5 4 4 5 3 6 7 7 9 7 5 3 4 10 11 4 -2 -4 13 15 9 24 20 10 2 2 6 -2 0 9 15 16 8 4 1 1 8 2 2 21 19 14 16 3 1 4 5 8 6 5 1 2 5 5 7 6 5 5 6 6 5 4 4 4 4 5 6 5 4 4 4 5 6 7 7 6 7 7 6 5 4 5 5 5 6 6 5 5 5 5 5 5 6 6
3 3 3 5 4 3 4 4 5 6 6 7 9 10 7 1 7 10 12 15 0 -4 -4 2 19 19 21 14 13 21 10 6 3 3 9 11 9 5 2 7 6 -3 11 14 9 17 10 5 5 4 8 7 6 3 0 3 5 7 6 4 3 6 6 6 5 4 5 5 6 5 5 5 5 5 5 7 7 6 6 6 7 6 5 5 5 5 6 5 6 5 5 5 4 5 5 5 6
3 3 4 3 3 3 3 5 5 5 6 6 5 8 12 3 0 1 0 12 13 3 -3 7 10 1 6 1 3 9 1 4 7 3 -2 5 12 17 13 -3 9 17 12 9 -0 8 12 9 8 6 7 7 7 5 4 2 4 7 7 5 3 5 7 8 6 4 5 4 5 4 4 5 5 6 5 6 7 6 6 6 6 6 5 5 5 5 6 5 5 5 5 5 5 5 4 5 5
3 3 3 2 3 4 3 4 6 7 4 9 8 1 12 13 5 4 3 -1 0 11 8 1 0 9 16 6 14 11 -4 -0 2 2 -2 4 7 14 19 8 36 41 10 10 3 -3 6 9 8 8 7 7 8 6 6 3 4 6 6 6 4 4 7 10 7 4 4 4 5 4 3 5 5 6 6 6 6 6 6 6 6 6 6 5 5 5 6 5 6 6 5 5 5 5 5 4 4
4 5 4 3 4 4 6 4 4 4 3 10 10 4 14 22 14 5 10 3 -5 7 13 16 6 0 9 4 10 14 10 9 5 6 4 9 3 -5 2 6 15 1 -6 24 24 1 -1 6 5 7 9 7 8 6 6 4 4 5 5 6 5 5 6 8 8 5 4 4 6 5 3 4 5 6 6 6 6 5 5 6 6 6 6 5 5 5 5 5 5 6 5 5 5 5 4 4 4
5 6 6 5 5 5 5 4 5 3 4 6 2 6 6 12 19 12 16 15 12 16 -2 2 8 -6 3 9 7 13 11 4 11 17 8 12 14 6 2 4 -5 -19 2 17 9 8 2 0 2 4 8 7 9 7 5 5 3 4 4 4 4 4 5 6 9 7 6 6 6 5 4 4 6 6 6 7 6 6 6 5 6 7 6 6 5 6 6 5 6 6 5 5 5 5 4 4 4
7 7 6 5 5 4 5 3 7 4 4 6 7 16 5 4 15 3 8 10 4 13 -3 -13 -1 1 -0 4 7 12 9 -0 6 8 -0 -2 2 10 7 7 2 -7 16 8 -14 5 9 5 5 2 6 6 7 8 6 4 4 4 3 4 3 4 4 4 7 8 7 6 6 5 3 4 6 6 7 7 6 6 7 6 6 6 6 6 5 6 6 5 6 5 5 5 5 5 4 4 4
8 8 6 6 6 5 7 5 7 7 8 7 4 12 5 4 16 13 12 9 -2 -3 3 -4 -7 7 9 8 9 8 12 5 0 1 2 1 1 8 3 7 12 -3 8 7 -11 -1 4 6 10 5 6 6 5 7 7 5 4 3 3 4 3 3 4 3 4 6 6 5 7 6 3 3 6 8 8 7 6 7 7 6 6 6 6 6 6 6 6 5 5 6 5 5 5 5 4 4 5
8 8 6 6 7 7 9 9 8 6 11 15 8 11 10 -4 -5 11 6 -8 2 1 3 5 -2 7 6 1 0 -3 7 8 4 7 4 5 7 7 2 2 10 6 -3 -7 1 15 8 -1 6 8 6 6 5 6 6 6 5 4 4 4 5 4 3 4 4 4 4 7 8 7 5 4 6 8 9 7 6 8 7 6 6 6 6 5 6 6 6 6 5 5 6 5 5 4 5 4 4
6 6 7 6 7 9 8 7 9 9 11 13 11 8 8 -2 -24 -23 -16 -17 -1 5 3 7 2 -3 -11 -14 -8 -6 2 7 6 8 4 5 9 11 15 5 1 9 -1 0 16 16 9 2 1 5 5 4 4 4 5 5 5 6 5 4 5 5 4 3 5 5 5 9 11 11 10 6 6 8 8 7 7 9 8 7 6 6 6 5 6 6 6 6 6 5 5 5 5 4 4 4 4
6 6 7 7 7 7 8 9 12 15 9 1 7 15 7 2 -4 -11 -1 5 3 5 7 6 2 -2 1 -1 -5 0 4 4 4 5 4 6 8 12 20 17 11 6 0 19 23 1 2 9 2 0 3 3 3 5 3 4 5 5 5 5 5 4 5 3 5 7 6 9 10 15 16 8 7 8 7 7 8 9 8 7 7 6 5 5 6 6 5 6 6 5 5 5 5 5 5 4 5
8 8 5 7 8 7 11 11 5 2 -0 -6 -11 1 7 -1 2 3 5 9 6 9 8 4 7 5 9 8 -2 -1 2 4 5 5 6 4 3 2 7 15 18 10 3 8 9 7 6 4 7 6 3 3 4 5 4 4 4 5 5 5 6 6 5 4 6 6 6 6 7 16 18 10 8 8 8 9 9 8 8 8 7 6 5 5 6 6 6 6 6 5 5 5 5 5 5 5 5
8 9 8 12 12 10 14 6 -3 -5 -2 1 -25 -34 -7 1 1 4 6 12 9 9 7 2 9 11 6 7 4 3 5 9 9 6 8 7 5 2 2 8 11 13 14 0 -5 15 16 2 8 8 5 6 5 6 5 5 4 4 6 6 7 8 6 5 5 4 4 3 6 17 18 12 10 9 8 8 7 5 6 7 7 7 5 5 6 6 6 5 6 6 5 4 5 4 4 4 3
8 9 6 14 13 7 11 1 -2 4 2 6 -2 -9 7 13 14 12 9 11 9 9 11 5 8 15 12 8 9 13 12 11 7 4 6 7 9 7 1 3 5 6 13 8 -5 2 10 8 8 7 8 6 5 8 6 6 6 4 4 7 9 9 8 6 6 4 4 5 9 15 14 10 8 5 5 3 4 3 3 4 5 6 6 5 6 7 6 5 6 6 5 5 4 4 4 4 2
7 10 12 19 13 4 4 -4 -3 9 10 12 12 12 16 14 12 11 9 11 11 12 10 8 10 10 10 13 10 4 2 4 5 5 5 7 9 8 5 6 6 4 6 10 3 -4 2 8 6 5 5 5 7 6 5 5 4 5 2 2 7 8 9 9 9 7 6 9 12 14 11 7 3 2 3 4 4 4 3 3 3 4 5 5 5 6 6 5 6 6 5 4 4 5 5 4 2
10 13 13 10 3 2 7 2 4 9 9 14 13 8 8 6 5 5 10 11 10 13 10 9 10 -0 -5 3 5 -4 -4 5 5 4 5 8 10 5 5 9 8 8 6 9 14 10 13 28 26 8 1 5 7 2 3 6 2 3 2 -2 1 2 6 11 15 11 7 12 12 11 11 5 3 3 4 6 4 3 4 3 2 3 4 5 5 6 7 6 6 6 5 4 5 5 5 4 4
14 11 9 7 1 0 7 8 6 6 6 8 8 7 6 5 6 7 8 9 7 7 7 9 12 12 11 11 13 11 10 13 9 7 7 8 15 11 4 6 5 8 10 8 13 13 12 28 32 15 5 3 4 5 2 3 3 1 0 -1 0 0 1 9 18 16 9 12 12 9 9 5 2 4 5 5 3 3 4 3 3 4 4 5 6 6 6 6 5 6 5 5 5 5 4 4 4
9 5 7 3 1 1 7 11 6 6 6 5 6 6 7 7 7 8 7 7 7 4 6 11 9 8 10 6 5 8 9 13 12 9 6 4 11 12 8 8 5 7 11 4 6 11 -0 -3 9 15 16 7 -0 5 4 3 5 1 -1 -1 0 3 1 4 15 19 13 11 11 9 9 6 3 5 5 2 2 4 4 4 4 5 5 4 5 6 6 6 6 5 6 5 5 5 4 5 5
3 6 6 -1 4 8 8 8 8 8 6 7 8 4 6 8 6 7 9 10 10 10 10 6 2 2 6 7 6 7 7 9 11 8 5 5 6 4 4 8 7 5 7 5 6 14 5 -1 11 14 15 15 4 2 3 5 6 3 3 1 1 3 3 3 7 14 17 14 12 12 11 7 6 5 4 3 4 5 4 4 5 6 7 5 4 6 6 6 6 6 6 6 6 5 4 5 5
4 8 8 7 11 12 13 14 13 13 14 12 9 8 8 8 10 11 16 23 17 8 7 3 3 6 3 5 7 6 7 9 12 10 4 6 9 7 5 7 8 5 6 7 7 12 14 12 13 8 8 17 18 12 4 2 3 3 5 5 4 2 2 3 4 9 15 16 16 16 13 8 7 6 5 7 7 6 7 7 7 7 6 5 5 5 6 7 6 7 6 6 7 5 3 4 6
13 19 16 19 22 25 28 24 22 22 23 21 17 18 16 18 23 20 24 31 21 8 7 7 7 7 3 5 8 9 9 9 9 10 7 6 9 11 9 6 5 6 5 4 5 8 10 13 10 3 0 1 12 23 16 5 0 0 2 4 5 3 2 2 3 9 11 15 22 20 13 7 7 7 8 11 9 8 9 8 7 7 6 5 6 5 6 7 6 7 7 6 7 6 4 4 6
23 24 22 27 25 26 26 23 29 27 22 23 27 31 34 37 30 32 42 24 5 4 6 11 12 9 8 7 7 7 8 7 8 10 9 7 6 7 8 9 5 6 8 4 11 16 7 7 11 6 3 -3 -2 12 21 17 4 -1 0 -0 3 3 2 2 4 9 9 13 23 19 9 7 7 7 9 10 11 10 9 9 8 7 6 6 7 6 6 7 8 7 7 7 6 6 5 4 5
23 20 24 28 22 22 22 22 24 23 26 22 23 33 31 28 28 45 46 9 -0 16 15 19 23 15 12 10 8 8 9 8 8 8 8 8 9 7 8 14 10 6 9 -3 -3 16 13 5 8 6 11 13 -1 -10 7 27 18 4 -0 -4 0 4 3 2 2 9 12 15 23 16 7 10 8 6 9 9 9 10 8 9 8 6 6 6 6 7 6 7 8 7 7 8 6 5 5 5 5
17 23 19 10 13 19 9 -3 -2 10 28 31 28 24 12 22 40 28 -1 -6 27 42 26 20 17 15 15 12 12 11 10 9 6 7 9 9 10 7 5 11 11 5 9 4 -9 5 18 13 11 4 2 16 12 -11 -11 15 23 12 9 4 -2 1 5 1 -3 5 17 22 22 13 9 12 9 7 9 9 9 9 9 9 8 7 7 6 6 5 5 6 7 6 6 8 7 5 5 5 6
10 19 12 6 7 8 7 0 6 9 4 17 27 6 -6 20 26 -9 -21 12 39 30 19 21 18 20 22 18 17 13 11 12 9 9 8 8 8 8 7 5 10 7 3 11 2 -2 15 16 17 18 4 8 18 6 -9 -1 14 15 16 18 8 2 5 4 -3 2 23 35 23 10 11 11 9 9 9 9 10 8 9 9 7 7 6 4 5 4 3 4 4 4 5 8 7 6 5 5 6
11 11 3 18 15 3 10 4 11 23 8 13 21 -2 -10 11 10 -2 13 29 26 18 19 22 19 21 21 19 19 15 15 14 11 12 8 6 6 6 9 3 6 10 1 7 1 -12 1 3 7 21 15 8 12 12 6 -2 4 12 10 13 17 10 4 6 1 2 29 46 25 7 10 10 7 8 7 6 7 5 5 6 4 4 4 3 3 3 3 3 3 2 2 5 7 6 6 6 5
11 7 -6 4 11 4 6 3 10 28 29 22 15 -3 -14 -2 2 -2 16 22 13 17 19 18 19 17 15 17 19 18 18 14 12 16 12 9 9 5 9 7 5 9 3 7 5 -10 -6 -2 1 13 12 10 8 8 14 9 2 8 7 3 12 15 6 4 3 5 30 41 20 5 5 8 7 5 4 3 2 2 2 2 3 2 3 4 4 4 5 6 6 4 3 3 5 6 5 5 4
-0 1 -1 -1 13 7 -5 2 4 5 17 17 14 9 -5 -3 -7 -19 8 20 2 5 11 13 18 17 17 17 18 18 16 16 15 18 16 11 9 5 5 7 7 7 3 6 9 3 2 1 3 13 11 6 5 4 14 17 2 -1 9 7 5 12 7 1 1 7 25 26 8 5 7 7 8 4 2 3 1 2 2 2 3 4 4 5 6 7 6 8 9 8 7 5 4 4 5 5 4
-3 2 9 5 10 3 -7 1 -0 -1 8 3 5 13 7 7 -0 -7 7 -6 -21 1 11 6 8 10 15 17 17 19 16 18 17 16 17 13 9 7 4 6 7 5 4 7 7 6 7 2 1 9 12 8 7 6 7 14 9 -3 3 12 10 15 14 6 1 2 15 18 5 4 10 10 9 5 1 1 2 2 3 4 5 4 5 5 6 7 6 6 8 9 7 5 2 2 4 3 2
-0 3 7 6 4 1 9 14 6 5 3 -0 4 4 4 6 2 10 12 -11 -13 7 7 5 9 4 4 6 8 10 5 4 9 8 9 12 9 6 3 6 9 5 5 9 7 7 6 2 2 3 4 5 10 13 5 5 14 4 -4 7 14 13 18 16 6 -1 2 9 9 7 10 11 9 5 -1 -2 1 3 4 4 5 4 4 4 4 5 7 6 6 7 6 3 2 1 3 3 2
9 6 4 7 5 -0 9 12 1 -5 -3 11 15 4 7 10 4 10 11 8 13 13 10 11 10 7 3 0 3 12 13 10 13 16 19 23 18 12 8 9 13 9 6 8 7 9 7 2 4 4 3 3 5 13 12 4 10 13 1 0 9 9 16 22 12 6 7 6 9 9 8 9 7 1 -3 -1 2 3 5 3 1 2 3 3 2 1 4 6 5 5 4 3 2 3 3 3 2
16 15 12 10 8 7 12 12 3 -4 1 15 16 9 10 8 6 10 10 15 12 2 4 4 4 10 9 7 8 11 16 16 15 17 22 30 28 20 12 8 11 10 7 7 6 9 9 5 6 6 8 9 3 5 15 11 7 14 5 -4 10 18 20 20 5 -0 8 9 14 19 15 8 5 3 0 3 6 3 2 1 -1 0 4 4 3 1 1 3 4 4 4 4 4 5 5 4 3
10 9 12 8 6 11 12 9 8 5 4 8 9 9 8 3 3 10 10 9 3 -4 -2 2 5 7 5 9 10 5 7 10 10 9 7 15 24 26 19 11 10 10 11 8 5 8 7 7 9 6 8 13 8 2 8 11 7 11 9 -3 2 12 15 15 5 -2 0 -2 4 19 26 16 5 5 6 5 5 3 0 -0 -0 0 3 5 6 4 2 1 2 3 3 3 4 6 5 5 5
10 13 17 10 4 9 9 7 11 11 7 6 7 12 20 13 5 16 12 -5 -1 9 9 10 11 9 7 10 10 10 10 7 8 12 10 9 13 20 24 20 13 9 12 11 6 7 6 7 12 10 9 11 11 7 3 6 9 7 11 6 -1 3 9 8 7 8 6 -3 -6 3 18 25 12 1 4 5 1 1 1 0 0 1 2 5 7 6 4 2 2 2 2 2 2 4 6 5 7
13 15 15 12 10 12 14 15 15 14 13 10 6 16 36 31 19 32 28 7 7 10 8 13 14 12 13 14 16 16 16 12 8 9 14 14 10 12 18 21 21 15 10 11 10 9 5 4 8 9 12 13 11 10 5 4 8 6 8 15 13 4 -3 -1 10 16 7 -2 -1 -2 1 19 23 7 0 3 2 0 2 2 0 0 2 4 7 7 6 5 4 3 4 4 2 2 4 5 5
6 5 7 15 19 14 14 19 18 17 17 18 19 20 26 22 11 13 7 -2 -1 -3 1 11 11 10 12 15 15 11 12 15 10 6 9 15 14 11 12 14 22 22 14 13 14 11 8 4 5 4 6 13 14 12 9 4 4 6 7 11 16 8 -8 -8 8 16 10 1 -0 1 -4 5 19 16 4 1 3 2 1 3 2 0 1 3 6 6 7 6 5 6 6 5 5 4 4 4 4
2 2 3 9 16 12 10 18 20 17 13 20 33 23 7 5 4 7 7 2 1 1 3 1 -2 4 8 9 10 7 8 11 12 13 10 15 20 13 8 8 14 21 17 17 19 15 10 8 11 10 2 5 12 13 10 7 3 3 7 7 7 9 5 -1 -4 -3 8 12 2 -1 1 4 14 17 7 1 4 3 1 2 3 2 1 1 4 5 4 5 4 5 6 5 6 7 4 3 3
5 1 -0 7 19 15 9 18 22 19 16 16 17 5 -4 4 6 8 15 12 9 8 4 1 2 8 10 8 8 4 3 1 -1 2 1 11 24 21 12 5 7 14 12 14 23 23 16 9 11 16 10 5 9 13 8 9 8 -0 3 10 7 8 7 5 5 -4 -0 16 16 7 1 2 14 18 7 1 3 2 2 2 2 4 2 0 2 4 3 3 4 4 4 5 5 7 6 3 3
4 2 5 9 16 11 4 15 14 9 17 15 5 -0 1 10 8 4 9 10 9 6 5 9 12 14 16 13 12 10 9 8 4 5 6 4 11 18 20 14 7 9 8 7 14 23 24 19 11 12 16 12 8 11 9 7 11 6 1 1 5 18 12 -0 10 7 -1 7 9 12 11 -1 8 20 9 3 5 2 2 3 2 3 4 2 1 3 4 2 3 4 2 4 4 4 6 4 1
4 10 14 5 10 14 2 10 17 10 14 10 0 4 9 12 10 5 8 11 14 14 12 13 12 13 15 13 15 18 17 20 20 20 20 13 8 9 16 21 14 7 6 5 6 12 20 24 21 14 15 16 8 9 10 4 5 13 14 -2 -12 12 25 7 6 9 6 5 -3 11 28 9 4 18 8 2 7 5 2 3 2 3 3 5 2 1 4 3 2 3 2 2 3 1 3 4 2
4 9 12 2 14 24 1 3 20 11 4 1 -1 8 12 12 12 8 8 9 12 15 11 9 8 9 12 13 16 19 19 20 21 21 21 21 20 16 12 17 18 13 8 7 5 7 10 16 23 21 19 19 9 4 10 8 4 8 17 10 -12 -1 24 18 14 15 8 8 1 9 32 20 6 16 10 0 4 5 5 4 2 3 2 3 4 0 1 3 2 2 2 1 1 -1 -2 1 3
3 5 9 3 10 18 6 4 11 5 1 0 2 9 6 6 10 8 7 7 9 10 4 1 4 6 9 12 15 18 21 22 21 21 22 21 21 22 20 16 16 16 12 9 8 8 9 9 15 20 24 27 16 3 3 7 12 11 12 13 -7 -10 12 14 16 16 -1 4 7 -2 22 32 6 5 8 -1 1 4 3 6 4 2 4 3 4 3 1 2 3 1 1 -0 -1 -1 -2 -0 2
2 5 9 7 6 8 9 7 5 5 8 7 8 9 7 11 12 6 6 9 8 6 4 7 10 11 10 11 12 12 15 19 20 19 20 21 21 21 22 21 18 15 12 9 8 8 9 8 8 11 18 30 28 14 2 -2 5 8 14 21 5 4 26 21 20 26 2 5 19 -6 -3 19 11 12 12 -4 1 8 1 5 6 1 4 4 3 4 1 0 2 2 2 2 -0 -1 -2 -2 1
7 7 5 8 8 5 5 5 1 1 5 11 12 6 7 12 6 3 11 12 5 3 7 12 12 10 9 9 8 6 7 12 15 15 14 14 17 18 19 22 22 19 15 12 9 7 8 8 8 6 9 22 32 24 10 2 2 0 9 14 -11 -10 21 14 15 41 19 2 34 31 -4 -7 16 29 12 -9 2 11 2 2 7 4 4 4 4 6 4 2 3 3 3 4 4 3 2 0 -2
11 8 6 7 7 5 6 7 7 5 7 12 8 2 9 8 -1 3 11 8 3 4 8 11 10 10 8 6 5 4 7 9 11 15 14 9 10 12 14 17 20 23 20 15 12 8 6 7 8 6 4 12 27 31 17 8 9 8 12 8 -23 -28 1 -5 -12 23 24 -10 11 52 29 -6 6 19 5 5 15 10 4 3 2 4 7 3 2 6 5 5 5 3 -0 0 3 3 4 5 1
12 10 10 8 7 9 10 9 11 10 8 7 5 9 14 6 -0 5 7 5 3 2 7 10 9 9 9 8 7 6 7 11 13 15 17 16 12 9 11 14 17 22 22 18 16 15 13 10 8 8 5 5 16 30 25 11 9 11 14 12 0 -3 8 3 -15 -5 17 -3 -22 17 42 9 -7 1 -2 8 19 7 2 5 -1 -2 4 5 4 4 6 7 5 3 2 2 4 4 2 5 6
12 11 11 10 10 11 9 7 8 9 9 7 9 14 10 -0 -2 1 3 6 1 -2 7 10 7 8 12 13 13 10 8 11 13 13 18 23 19 13 12 14 17 20 25 24 17 13 14 11 8 7 6 5 8 21 30 22 9 8 12 11 10 11 9 10 6 -8 6 20 -9 -9 34 28 0 3 1 -1 15 16 3 4 6 -0 -4 4 11 7 3 7 5 2 1 0 1 3 4 4 7
9 7 8 11 11 8 7 7 6 8 9 7 7 7 0 -4 -1 2 3 3 -0 -1 3 6 6 7 9 11 12 12 10 11 13 12 14 20 22 19 14 16 20 19 24 33 25 14 12 13 12 8 6 8 7 11 24 30 18 5 8 11 10 13 9 5 12 3 -0 22 8 -22 4 29 15 10 7 -2 11 26 16 5 8 7 -9 -10 12 19 7 5 6 3 3 3 2 1 3 4 2
3 2 6 10 9 7 8 8 8 9 8 4 2 1 -1 1 4 3 -0 0 4 2 1 6 8 7 7 7 7 8 8 8 11 13 14 17 20 22 20 17 18 20 26 36 35 22 14 14 15 11 8 9 10 8 15 27 29 15 6 8 9 11 12 3 4 10 5 12 12 -12 -11 14 13 8 13 6 -1 14 27 14 2 9 3 -17 -8 13 15 8 4 3 4 3 4 3 2 5 1
1 2 6 9 7 6 6 6 8 10 6 2 -0 -1 2 6 5 0 -1 6 9 0 -0 10 9 6 8 6 4 7 8 5 7 11 14 14 16 22 27 20 12 20 33 40 40 30 20 14 13 13 11 10 10 9 11 16 22 21 11 6 9 9 11 8 0 6 10 4 9 12 7 9 7 4 10 10 -2 -2 20 27 7 2 10 -1 -16 -9 12 20 8 2 9 7 4 5 3 5 4
5 7 11 10 6 5 5 5 5 5 4 3 3 3 5 4 2 1 4 11 9 -2 0 10 9 7 9 7 6 6 5 5 6 9 10 13 16 21 30 26 11 15 37 47 41 30 25 19 14 15 14 14 14 10 9 13 17 24 22 12 10 8 8 11 5 5 8 0 4 17 17 11 11 9 6 8 14 8 3 16 18 6 5 10 -2 -19 -6 23 18 -2 5 14 7 3 3 4 4
Height
5837 5837 5838 5838 5837 5839 5840 5841 5842 5843 5843 5844 5846 5847 5850 5852 5852 5854 5854 5855 5855 5855 5855 5854 5855 5854 5853 5854 5855 5856 5854 5852 5854 5857 5856 5856 5858 5859 5861 5863 5864 5865 5865 5867 5867 5867 5867 5867 5867 5868 5868 5869 5870 5870 5871 5871 5872 5872 5873 5873 5874 5874 5874 5874 5874 5874 5875 5875 5875 5875 5875 5875 5876 5876 5876 5876 5876 5876 5875 5875 5874 5874 5874 5874 5874 5874 5873 5873 5872 5871 5871 5870 5869 5869 5869 5869 5869
5835 5836 5836 5836 5836 5837 5838 5838 5839 5841 5841 5842 5844 5846 5848 5850 5851 5854 5855 5855 5854 5852 5851 5851 5855 5853 5852 5853 5854 5855 5850 5847 5852 5856 5856 5856 5857 5859 5861 5861 5862 5863 5864 5865 5866 5866 5866 5866 5866 5867 5868 5868 5868 5869 5870 5870 5871 5871 5872 5872 5872 5873 5873 5874 5874 5874 5874 5874 5874 5874 5874 5875 5875 5875 5876 5876 5876 5876 5875 5874 5874 5874 5874 5874 5874 5873 5873 5873 5872 5871 5870 5870 5869 5869 5869 5869 5869
5833 5834 5834 5834 5834 5835 5836 5836 5836 5838 5839 5839 5841 5844 5846 5848 5850 5853 5854 5855 5853 5850 5847 5849 5854 5852 5852 5853 5851 5851 5848 5846 5849 5854 5856 5856 5856 5858 5860 5859 5861 5862 5863 5865 5865 5865 5865 5865 5866 5866 5867 5867 5868 5868 5868 5869 5870 5870 5871 5871 5871 5872 5872 5873 5873 5873 5873 5873 5873 5873 5874 5874 5874 5875 5875 5875 5876 5875 5875 5874 5874 5874 5874 5874 5874 5873 5873 5873 5872 5871 5870 5870 5869 5869 5869 5869 5869
5831 5832 5832 5833 5833 5832 5834 5833 5834 5836 5837 5838 5840 5843 5845 5847 5849 5850 5852 5852 5851 5848 5846 5847 5851 5850 5852 5851 5849 5849 5846 5844 5847 5851 5854 5855 5855 5856 5858 5858 5858 5860 5861 5863 5863 5864 5864 5864 5864 5865 5866 5866 5867 5867 5867 5868 5868 5869 5869 5870 5870 5871 5871 5872 5872 5872 5872 5872 5872 5873 5873 5873 5874 5874 5874 5875 5875 5875 5875 5874 5874 5873 5873 5873 5873 5873 5873 5872 5872 5871 5870 5870 5869 5869 5869 5869 5869
5830 5830 5831 5831 5831 5831 5831 5832 5833 5834 5836 5838 5839 5842 5844 5846 5847 5849 5851 5850 5846 5844 5845 5846 5847 5849 5850 5849 5847 5846 5843 5843 5847 5849 5852 5853 5852 5854 5856 5857 5858 5858 5860 5860 5861 5862 5862 5863 5863 5864 5864 5865 5866 5866 5866 5866 5867 5867 5868 5869 5869 5870 5870 5870 5871 5871 5871 5871 5872 5872 5872 5872 5873 5873 5873 5874 5874 5875 5874 5873 5873 5873 5873 5873 5873 5873 5873 5872 5872 5871 5870 5870 5869 5869 5869 5869 5869
5828 5828 5829 5829 5830 5830 5829 5830 5832 5833 5835 5837 5838 5840 5842 5843 5846 5847 5847 5846 5843 5841 5844 5845 5846 5849 5847 5846 5845 5843 5841 5842 5846 5846 5848 5850 5849 5851 5853 5856 5857 5858 5859 5859 5860 5860 5860 5861 5861 5862 5863 5864 5864 5865 5865 5865 5865 5866 5866 5867 5868 5868 5869 5869 5869 5870 5870 5870 5871 5871 5871 5872 5872 5872 5873 5873 5874 5874 5874 5873 5873 5873 5873 5873 5873 5873 5872 5872 5872 5871 5870 5870 5869 5869 5869 5869 5869
5826 5826 5827 5827 5828 5828 5828 5829 5831 5832 5834 5836 5836 5839 5840 5841 5843 5843 5843 5843 5843 5840 5842 5843 5844 5846 5845 5845 5843 5839 5840 5843 5843 5842 5844 5847 5847 5848 5850 5853 5855 5856 5858 5859 5859 5859 5859 5859 5860 5861 5862 5862 5863 5863 5864 5864 5864 5864 5865 5866 5867 5867 5868 5868 5868 5869 5869 5869 5870 5870 5870 5871 5871 5872 5872 5872 5873 5873 5873 5873 5872 5872 5872 5872 5872 5872 5872 5872 5871 5871 5870 5870 5869 5869 5869 5869 5869
5824 5825 5825 5825 5826 5826 5826 5828 5830 5832 5833 5835 5835 5836 5838 5839 5840 5841 5841 5842 5842 5839 5840 5842 5841 5844 5844 5844 5842 5836 5839 5842 5842 5841 5841 5843 5845 5846 5848 5850 5852 5853 5855 5856 5857 5858 5858 5858 5858 5859 5860 5861 5861 5862 5862 5863 5863 5863 5864 5864 5865 5866 5866 5867 5867 5868 5868 5868 5869 5869 5869 5870 5870 5871 5871 5872 5872 5873 5873 5872 5872 5872 5872 5872 5872 5872 5872 5872 5871 5871 5870 5870 5869 5869 5868 5868 5869
5822 5823 5823 5823 5824 5823 5824 5826 5828 5830 5832 5833 5833 5834 5835 5837 5838 5839 5839 5839 5840 5838 5839 5841 5841 5842 5842 5844 5842 5834 5835 5838 5839 5840 5839 5840 5842 5845 5847 5849 5850 5851 5851 5852 5853 5854 5856 5856 5857 5858 5859 5860 5860 5861 5861 5861 5862 5862 5862 5863 5864 5864 5865 5865 5866 5867 5867 5867 5868 5868 5868 5869 5870 5870 5870 5871 5872 5872 5872 5872 5872 5872 5872 5871 5872 5872 5872 5871 5871 5870 5870 5870 5869 5869 5868 5868 5868
5819 5820 5821 5821 5821 5821 5823 5825 5826 5828 5830 5831 5831 5832 5833 5835 5836 5837 5837 5836 5837 5837 5839 5841 5840 5840 5839 5842 5840 5831 5833 5836 5836 5837 5836 5837 5840 5842 5845 5847 5848 5849 5849 5849 5849 5850 5852 5854 5855 5856 5857 5858 5859 5860 5860 5860 5861 5861 5861 5861 5862 5863 5863 5864 5865 5865 5866 5866 5866 5867 5867 5868 5869 5869 5870 5870 5871 5871 5872 5872 5871 5871 5871 5871 5871 5871 5871 5871 5871 5870 5870 5870 5869 5869 5868 5868 5868
5817 5818 5819 5818 5819 5820 5821 5823 5824 5826 5827 5828 5830 5831 5832 5833 5835 5835 5835 5834 5834 5836 5837 5838 5838 5839 5837 5839 5836 5830 5832 5833 5833 5834 5834 5835 5837 5840 5842 5844 5845 5846 5847 5847 5847 5847 5849 5851 5852 5854 5855 5856 5857 5858 5859 5859 5859 5860 5860 5860 5861 5861 5862 5863 5863 5864 5865 5865 5865 5866 5866 5867 5868 5869 5869 5870 5870 5870 5871 5871 5871 5871 5871 5871 5871 5871 5871 5871 5870 5870 5870 5870 5869 5869 5868 5868 5868
5815 5816 5816 5816 5817 5818 5819 5821 5822 5823 5825 5827 5829 5831 5831 5830 5833 5834 5832 5831 5833 5834 5836 5835 5837 5838 5836 5837 5833 5829 5830 5829 5830 5832 5833 5832 5834 5839 5841 5842 5843 5844 5846 5844 5843 5845 5847 5849 5850 5852 5853 5854 5855 5856 5857 5857 5858 5858 5858 5859 5859 5860 5860 5861 5862 5863 5863 5864 5864 5865 5865 5866 5867 5868 5869 5869 5869 5869 5870 5870 5870 5871 5871 5871 5870 5870 5870 5870 5870 5870 5870 5870 5869 5869 5868 5868 5868
5813 5814 5813 5813 5814 5816 5817 5817 5819 5821 5823 5824 5827 5831 5832 5830 5832 5833 5829 5829 5830 5830 5834 5833 5833 5835 5833 5835 5830 5825 5826 5827 5829 5830 5830 5831 5833 5837 5839 5841 5841 5842 5844 5844 5842 5842 5845 5847 5848 5850 5851 5852 5853 5854 5854 5855 5856 5856 5857 5857 5858 5858 5859 5860 5861 5861 5862 5863 5863 5864 5864 5865 5866 5867 5868 5868 5868 5868 5869 5870 5870 5870 5870 5870 5870 5870 5870 5870 5870 5870 5870 5869 5869 5869 5868 5868 5868
5810 5811 5810 5810 5811 5813 5814 5815 5817 5818 5820 5822 5825 5828 5830 5829 5829 5827 5824 5825 5826 5827 5830 5830 5831 5832 5831 5835 5828 5820 5822 5825 5825 5826 5827 5828 5832 5835 5837 5839 5838 5839 5842 5844 5842 5839 5842 5844 5846 5847 5849 5850 5851 5851 5852 5853 5854 5854 5855 5855 5856 5857 5858 5858 5859 5860 5861 5861 5862 5863 5863 5864 5865 5866 5867 5868 5867 5868 5868 5869 5869 5869 5869 5870 5870 5869 5869 5869 5869 5870 5870 5869 5869 5869 5868 5868 5868
5807 5808 5807 5807 5808 5809 5812 5813 5814 5816 5818 5820 5824 5825 5826 5827 5824 5820 5820 5821 5822 5824 5826 5826 5828 5829 5831 5834 5827 5819 5819 5821 5819 5820 5823 5825 5829 5832 5834 5837 5836 5837 5840 5841 5840 5836 5838 5840 5842 5844 5846 5847 5848 5849 5850 5851 5851 5852 5853 5854 5854 5855 5856 5857 5858 5859 5859 5860 5861 5862 5862 5863 5864 5865 5866 5866 5866 5867 5867 5868 5868 5868 5868 5869 5869 5869 5869 5869 5869 5869 5869 5869 5869 5869 5868 5868 5868
5804 5804 5804 5804 5805 5807 5809 5811 5812 5813 5815 5818 5822 5820 5819 5821 5817 5814 5817 5819 5820 5822 5822 5824 5826 5826 5828 5829 5824 5818 5818 5819 5817 5816 5819 5822 5826 5828 5830 5833 5834 5836 5838 5838 5838 5835 5836 5837 5839 5841 5843 5844 5846 5847 5848 5849 5849 5850 5851 5852 5853 5854 5854 5855 5856 5857 5858 5859 5859 5860 5861 5862 5862 5864 5865 5865 5865 5866 5867 5867 5867 5867 5867 5868 5868 5868 5868 5869 5869 5869 5869 5869 5869 5869 5869 5868 5868
5801 5801 5801 5801 5803 5805 5806 5808 5809 5810 5813 5817 5818 5814 5812 5813 5810 5809 5813 5817 5818 5819 5818 5821 5824 5821 5823 5825 5820 5816 5818 5818 5815 5813 5816 5819 5822 5825 5827 5830 5831 5834 5835 5835 5837 5836 5836 5837 5838 5839 5840 5842 5843 5844 5846 5847 5847 5848 5849 5850 5851 5852 5853 5854 5855 5855 5856 5857 5857 5858 5859 5860 5861 5862 5863 5864 5864 5865 5865 5866 5866 5866 5866 5867 5867 5868 5868 5868 5868 5868 5869 5869 5869 5869 5868 5868 5868
5797 5798 5799 5799 5800 5802 5803 5806 5807 5806 5808 5812 5813 5808 5805 5807 5806 5806 5810 5813 5814 5814 5815 5817 5820 5819 5820 5823 5819 5813 5814 5816 5814 5814 5814 5815 5820 5822 5824 5826 5828 5830 5832 5833 5835 5835 5835 5837 5837 5838 5838 5839 5841 5842 5843 5844 5845 5846 5847 5848 5849 5850 5851 5852 5853 5853 5854 5855 5855 5856 5857 5858 5859 5861 5862 5862 5863 5864 5864 5864 5865 5865 5865 5866 5866 5867 5867 5867 5868 5868 5868 5868 5869 5868 5868 5868 5868
5794 5795 5795 5796 5797 5799 5801 5802 5801 5800 5800 5804 5805 5800 5798 5802 5804 5803 5807 5810 5810 5809 5810 5814 5816 5817 5818 5821 5818 5811 5811 5812 5811 5812 5811 5813 5817 5819 5821 5823 5824 5826 5828 5830 5832 5833 5833 5834 5835 5836 5836 5837 5839 5839 5841 5842 5843 5844 5845 5846 5846 5847 5849 5850 5851 5851 5853 5853 5853 5855 5856 5857 5858 5859 5860 5861 5862 5862 5863 5863 5864 5864 5864 5865 5865 5866 5866 5867 5867 5867 5867 5868 5868 5868 5868 5868 5867
5792 5792 5791 5793 5794 5795 5797 5795 5792 5793 5794 5797 5797 5794 5794 5798 5801 5802 5804 5806 5806 5804 5806 5811 5813 5813 5814 5815 5815 5813 5812 5807 5803 5807 5809 5812 5815 5815 5818 5819 5820 5820 5822 5825 5828 5830 5831 5832 5832 5833 5834 5835 5837 5838 5839 5840 5841 5842 5843 5844 5844 5845 5846 5847 5849 5850 5851 5852 5852 5853 5854 5856 5857 5858 5859 5860 5860 5861 5862 5862 5862 5863 5864 5864 5865 5865 5866 5866 5866 5866 5867 5868 5868 5867 5867 5867 5867
5788 5788 5788 5791 5790 5790 5791 5787 5785 5788 5789 5792 5793 5792 5792 5794 5796 5798 5800 5802 5802 5801 5803 5806 5807 5808 5809 5810 5812 5813 5810 5803 5799 5805 5809 5812 5814 5812 5813 5815 5817 5816 5817 5822 5827 5829 5830 5831 5830 5830 5832 5833 5835 5836 5837 5838 5839 5840 5841 5841 5842 5843 5844 5846 5847 5848 5849 5850 5851 5852 5853 5855 5856 5857 5857 5858 5859 5860 5860 5861 5861 5862 5863 5863 5864 5864 5865 5866 5866 5866 5866 5867 5867 5867 5867 5867 5867
5784 5785 5785 5788 5785 5783 5785 5782 5781 5785 5787 5789 5790 5791 5790 5790 5791 5793 5794 5797 5797 5799 5800 5800 5802 5804 5803 5805 5808 5806 5803 5801 5800 5804 5808 5811 5812 5810 5810 5811 5813 5813 5816 5822 5827 5828 5829 5829 5828 5827 5829 5831 5833 5834 5834 5836 5837 5838 5838 5839 5840 5841 5843 5844 5845 5846 5847 5848 5850 5851 5852 5854 5855 5855 5856 5857 5857 5858 5859 5859 5860 5861 5862 5863 5863 5864 5864 5865 5866 5866 5866 5866 5867 5867 5867 5867 5867
5781 5782 5782 5783 5780 5778 5780 5779 5778 5782 5785 5787 5787 5786 5787 5786 5786 5788 5791 5792 5793 5795 5796 5795 5796 5798 5797 5799 5803 5800 5798 5800 5802 5803 5808 5811 5810 5809 5808 5809 5809 5812 5816 5821 5824 5825 5825 5825 5824 5823 5824 5827 5829 5830 5831 5833 5834 5835 5836 5837 5838 5839 5841 5842 5843 5844 5845 5847 5848 5850 5851 5852 5853 5854 5854 5855 5856 5857 5858 5858 5859 5860 5861 5862 5862 5863 5863 5864 5865 5865 5865 5866 5866 5866 5866 5866 5866
5779 5778 5778 5778 5776 5775 5777 5777 5775 5777 5780 5782 5782 5781 5782 5782 5782 5785 5787 5788 5789 5789 5791 5791 5792 5793 5794 5796 5799 5798 5795 5797 5801 5804 5808 5810 5808 5806 5805 5806 5809 5811 5815 5818 5818 5816 5816 5817 5819 5819 5818 5821 5823 5824 5827 5829 5830 5832 5833 5834 5836 5837 5838 5840 5841 5842 5844 5845 5847 5848 5849 5850 5851 5852 5853 5853 5854 5855 5856 5857 5858 5859 5860 5861 5861 5862 5862 5863 5864 5865 5865 5865 5866 5866 5866 5866 5866
5774 5774 5775 5773 5771 5771 5773 5774 5773 5772 5774 5775 5777 5777 5777 5778 5778 5781 5782 5784 5784 5783 5787 5789 5789 5789 5790 5790 5793 5794 5793 5795 5800 5802 5804 5805 5804 5802 5801 5804 5808 5810 5811 5811 5809 5808 5809 5811 5815 5815 5812 5814 5817 5819 5822 5824 5826 5828 5830 5832 5833 5834 5836 5838 5839 5840 5842 5844 5845 5846 5847 5849 5850 5851 5851 5852 5852 5853 5854 5855 5856 5857 5859 5860 5860 5861 5861 5862 5863 5864 5865 5865 5865 5866 5866 5866 5866
5769 5770 5771 5768 5767 5768 5769 5770 5769 5768 5769 5770 5771 5772 5773 5773 5774 5775 5777 5779 5778 5779 5783 5784 5784 5784 5785 5785 5788 5790 5791 5794 5796 5798 5800 5799 5799 5797 5796 5803 5808 5807 5806 5804 5806 5809 5811 5812 5814 5814 5812 5811 5813 5814 5816 5819 5821 5824 5826 5828 5830 5832 5833 5835 5837 5838 5840 5842 5844 5844 5846 5847 5848 5849 5850 5850 5851 5852 5853 5854 5855 5856 5858 5859 5859 5860 5860 5861 5862 5863 5864 5864 5865 5865 5865 5865 5865
5765 5766 5766 5765 5764 5764 5764 5764 5764 5764 5765 5765 5766 5766 5768 5768 5769 5771 5773 5774 5773 5775 5776 5777 5779 5780 5780 5781 5784 5787 5790 5792 5793 5794 5795 5794 5794 5794 5794 5802 5806 5803 5803 5803 5806 5810 5811 5812 5813 5814 5814 5813 5813 5812 5812 5814 5817 5820 5822 5824 5826 5828 5831 5832 5834 5836 5838 5840 5841 5842 5844 5845 5846 5847 5848 5849 5850 5850 5851 5852 5853 5854 5856 5857 5858 5858 5859 5860 5861 5862 5863 5863 5864 5864 5864 5865 5865
5762 5763 5762 5762 5761 5761 5761 5760 5760 5760 5760 5761 5761 5762 5763 5764 5765 5767 5770 5768 5767 5771 5771 5771 5774 5775 5776 5779 5782 5785 5787 5789 5790 5790 5791 5792 5791 5790 5791 5798 5800 5798 5800 5802 5803 5805 5806 5807 5808 5810 5811 5812 5814 5813 5810 5810 5813 5817 5819 5821 5823 5825 5827 5829 5832 5834 5835 5837 5838 5840 5841 5842 5843 5845 5846 5847 5848 5849 5850 5851 5852 5853 5854 5856 5856 5857 5858 5859 5860 5861 5862 5862 5863 5863 5864 5864 5864
5759 5759 5759 5759 5758 5758 5758 5757 5757 5756 5757 5758 5758 5759 5760 5761 5762 5763 5767 5764 5761 5765 5767 5767 5769 5772 5775 5777 5779 5781 5782 5785 5787 5787 5788 5789 5787 5785 5786 5792 5794 5792 5796 5798 5798 5800 5802 5801 5801 5805 5806 5807 5810 5812 5810 5808 5810 5814 5817 5819 5820 5822 5824 5826 5829 5830 5832 5834 5836 5838 5839 5840 5841 5843 5845 5846 5846 5848 5848 5849 5850 5851 5853 5854 5855 5856 5857 5857 5859 5859 5860 5861 5862 5863 5863 5864 5864
5756 5757 5757 5756 5756 5756 5755 5755 5756 5755 5755 5756 5757 5758 5759 5759 5760 5761 5762 5759 5757 5759 5763 5765 5767 5769 5772 5773 5775 5777 5778 5780 5782 5783 5785 5785 5783 5783 5784 5786 5787 5787 5790 5791 5791 5795 5796 5796 5798 5801 5801 5803 5806 5808 5809 5809 5808 5811 5814 5816 5818 5820 5822 5824 5826 5827 5829 5831 5833 5835 5837 5838 5838 5840 5843 5844 5845 5846 5847 5849 5850 5851 5852 5853 5853 5854 5855 5856 5857 5858 5859 5860 5861 5862 5862 5863 5863
5755 5755 5755 5755 5757 5758 5755 5754 5755 5755 5754 5755 5756 5757 5759 5760 5760 5759 5757 5755 5756 5758 5759 5762 5763 5765 5767 5769 5771 5773 5773 5775 5777 5780 5781 5781 5780 5780 5780 5781 5779 5779 5783 5784 5785 5790 5792 5792 5794 5796 5797 5800 5803 5804 5806 5808 5807 5807 5809 5811 5815 5818 5821 5822 5824 5825 5826 5828 5830 5833 5835 5836 5837 5838 5841 5842 5844 5845 5846 5847 5849 5850 5851 5852 5852 5853 5854 5855 5856 5857 5858 5859 5860 5861 5861 5862 5863
5754 5754 5756 5757 5758 5759 5757 5755 5755 5755 5754 5754 5755 5756 5759 5761 5759 5756 5754 5754 5756 5756 5756 5757 5759 5761 5763 5764 5766 5768 5769 5771 5774 5775 5776 5776 5776 5775 5776 5776 5773 5771 5776 5779 5779 5782 5784 5784 5787 5789 5793 5796 5798 5800 5802 5804 5805 5805 5805 5807 5810 5813 5817 5820 5822 5823 5823 5825 5828 5831 5833 5834 5835 5837 5839 5840 5842 5843 5844 5846 5848 5849 5850 5851 5851 5852 5853 5854 5855 5856 5857 5858 5859 5859 5860 5861 5862
5755 5754 5757 5758 5758 5759 5757 5755 5755 5754 5753 5754 5755 5755 5758 5760 5757 5755 5754 5754 5753 5753 5754 5755 5756 5758 5758 5759 5762 5764 5765 5767 5768 5768 5770 5771 5771 5771 5771 5770 5767 5766 5771 5773 5773 5777 5778 5779 5783 5787 5790 5791 5794 5797 5798 5800 5803 5804 5804 5805 5806 5807 5811 5815 5819 5820 5820 5823 5826 5829 5831 5832 5833 5835 5836 5838 5840 5842 5843 5845 5847 5848 5850 5850 5850 5851 5852 5853 5854 5855 5856 5857 5858 5859 5859 5860 5861
5755 5754 5755 5756 5757 5758 5758 5756 5754 5752 5752 5753 5754 5754 5756 5758 5757 5755 5754 5753 5752 5752 5753 5753 5754 5755 5755 5756 5758 5760 5760 5762 5763 5762 5764 5766 5765 5766 5766 5765 5762 5763 5765 5765 5768 5775 5778 5780 5782 5785 5786 5787 5789 5792 5795 5797 5800 5802 5803 5804 5804 5803 5805 5810 5814 5817 5818 5821 5824 5827 5829 5830 5831 5833 5834 5836 5839 5840 5842 5843 5846 5847 5849 5850 5850 5850 5851 5852 5853 5854 5855 5856 5857 5858 5858 5859 5860
5753 5753 5753 5753 5754 5755 5757 5757 5753 5751 5752 5752 5753 5754 5754 5756 5756 5755 5757 5755 5752 5752 5752 5752 5752 5752 5752 5753 5755 5756 5756 5758 5758 5757 5758 5758 5759 5761 5762 5762 5759 5759 5761 5761 5766 5774 5779 5779 5778 5779 5780 5782 5785 5788 5791 5794 5796 5799 5801 5802 5803 5802 5802 5805 5808 5812 5815 5819 5822 5825 5827 5828 5829 5831 5833 5835 5837 5839 5840 5842 5844 5846 5848 5848 5849 5850 5850 5851 5852 5853 5854 5855 5856 5856 5857 5858 5858
5751 5751 5752 5752 5752 5753 5755 5754 5751 5750 5752 5751 5752 5752 5753 5754 5754 5755 5757 5755 5751 5750 5750 5750 5750 5750 5750 5751 5752 5752 5752 5752 5751 5750 5751 5751 5753 5756 5759 5760 5757 5756 5758 5760 5764 5771 5775 5775 5774 5774 5776 5778 5782 5785 5787 5791 5794 5796 5797 5800 5801 5801 5800 5801 5802 5805 5809 5815 5820 5823 5824 5826 5828 5830 5831 5833 5836 5837 5839 5841 5843 5845 5846 5847 5848 5849 5850 5851 5851 5852 5853 5854 5854 5855 5856 5857 5857
5750 5750 5751 5750 5751 5751 5752 5752 5751 5749 5749 5750 5750 5751 5751 5752 5752 5752 5752 5751 5749 5748 5748 5747 5747 5747 5747 5747 5747 5746 5747 5746 5746 5746 5747 5750 5751 5755 5760 5760 5757 5754 5756 5758 5760 5764 5768 5771 5771 5772 5773 5776 5780 5783 5784 5788 5791 5792 5795 5797 5798 5799 5799 5799 5800 5802 5805 5809 5815 5819 5822 5824 5825 5828 5830 5832 5834 5836 5837 5839 5841 5843 5845 5846 5847 5848 5849 5850 5851 5852 5852 5853 5853 5854 5855 5855 5856
5749 5749 5749 5749 5749 5749 5749 5749 5750 5748 5747 5748 5749 5748 5749 5750 5750 5749 5749 5748 5747 5746 5745 5744 5743 5743 5743 5743 5743 5745 5745 5745 5745 5746 5749 5751 5750 5753 5758 5757 5753 5751 5752 5754 5755 5757 5761 5765 5767 5768 5770 5773 5777 5780 5781 5785 5787 5790 5793 5794 5795 5797 5798 5798 5798 5801 5803 5804 5808 5813 5817 5820 5823 5826 5829 5831 5832 5834 5836 5837 5839 5841 5842 5844 5846 5847 5848 5848 5850 5851 5851 5852 5852 5853 5853 5854 5855
5747 5747 5747 5748 5747 5747 5747 5747 5747 5745 5745 5746 5746 5746 5747 5747 5746 5746 5746 5745 5743 5741 5741 5740 5740 5740 5740 5741 5743 5744 5745 5745 5745 5745 5747 5747 5745 5747 5751 5751 5749 5747 5747 5749 5750 5753 5755 5758 5762 5765 5766 5769 5774 5777 5778 5782 5784 5787 5790 5792 5793 5794 5796 5798 5798 5800 5800 5801 5804 5807 5810 5814 5819 5823 5826 5828 5830 5831 5833 5835 5837 5839 5840 5842 5843 5845 5846 5847 5848 5849 5850 5851 5851 5852 5852 5853 5853
5746 5745 5745 5745 5745 5744 5744 5744 5744 5744 5744 5744 5743 5744 5744 5742 5742 5743 5743 5741 5738 5737 5737 5737 5738 5739 5738 5739 5741 5742 5742 5742 5743 5742 5742 5741 5741 5742 5744 5746 5746 5744 5743 5744 5746 5750 5751 5752 5755 5760 5762 5765 5770 5774 5775 5779 5782 5784 5787 5790 5792 5793 5794 5796 5797 5799 5800 5801 5803 5804 5805 5808 5812 5818 5822 5825 5827 5829 5831 5833 5835 5837 5838 5840 5841 5843 5844 5845 5847 5848 5849 5849 5850 5850 5851 5852 5852
5744 5744 5744 5743 5743 5742 5742 5741 5741 5741 5741 5740 5740 5741 5740 5739 5740 5740 5739 5738 5736 5736 5735 5735 5736 5736 5736 5737 5737 5738 5738 5738 5739 5739 5738 5737 5738 5739 5739 5741 5743 5741 5740 5741 5742 5745 5747 5748 5750 5754 5758 5761 5766 5771 5773 5775 5778 5781 5785 5787 5790 5792 5793 5794 5795 5796 5798 5801 5804 5805 5805 5806 5807 5812 5817 5821 5824 5827 5829 5831 5833 5835 5836 5838 5840 5841 5843 5844 5845 5846 5847 5848 5849 5849 5850 5850 5850
5744 5744 5744 5743 5741 5741 5740 5740 5739 5739 5739 5737 5737 5738 5737 5736 5737 5737 5737 5736 5734 5734 5734 5734 5734 5734 5734 5734 5734 5735 5735 5734 5734 5735 5734 5733 5734 5736 5736 5737 5738 5738 5738 5738 5739 5741 5743 5746 5747 5750 5754 5758 5763 5768 5769 5772 5774 5777 5781 5784 5788 5790 5791 5793 5794 5795 5797 5800 5803 5806 5807 5807 5806 5808 5813 5818 5821 5824 5826 5828 5831 5833 5834 5836 5838 5839 5841 5842 5843 5844 5845 5846 5847 5848 5849 5849 5849
5744 5744 5743 5742 5740 5740 5739 5738 5738 5737 5737 5737 5736 5735 5734 5735 5735 5735 5735 5733 5731 5732 5733 5733 5732 5732 5732 5732 5732 5732 5732 5731 5731 5731 5731 5730 5730 5732 5732 5732 5733 5734 5735 5735 5736 5738 5739 5741 5744 5746 5750 5754 5760 5764 5766 5768 5770 5772 5776 5780 5784 5787 5788 5790 5791 5793 5796 5798 5801 5804 5806 5806 5806 5806 5809 5814 5817 5820 5823 5825 5828 5830 5832 5834 5835 5837 5838 5840 5841 5842 5843 5844 5845 5846 5847 5848 5848
5743 5743 5742 5740 5739 5739 5738 5737 5736 5735 5735 5735 5734 5732 5731 5733 5734 5734 5733 5731 5730 5731 5731 5731 5730 5730 5730 5730 5730 5729 5729 5729 5728 5728 5728 5727 5726 5728 5729 5729 5728 5729 5731 5732 5733 5734 5735 5737 5740 5743 5748 5752 5756 5762 5763 5764 5767 5769 5771 5775 5779 5783 5784 5786 5788 5790 5793 5796 5797 5800 5803 5805 5806 5807 5808 5811 5815 5818 5820 5822 5825 5827 5829 5831 5832 5834 5835 5837 5838 5839 5841 5841 5842 5844 5845 5846 5847
5742 5741 5740 5739 5738 5738 5737 5736 5735 5734 5733 5734 5734 5731 5730 5731 5732 5732 5731 5730 5730 5730 5729 5729 5728 5728 5728 5728 5727 5726 5726 5726 5726 5725 5725 5724 5723 5723 5725 5725 5724 5725 5727 5728 5729 5731 5732 5733 5735 5738 5744 5748 5752 5759 5761 5761 5764 5766 5768 5770 5773 5777 5779 5781 5783 5786 5789 5793 5794 5796 5799 5802 5805 5807 5808 5810 5813 5815 5818 5819 5821 5824 5826 5828 5829 5831 5833 5834 5836 5837 5838 5839 5840 5841 5842 5844 5845
5741 5740 5739 5739 5738 5737 5736 5735 5734 5734 5733 5733 5733 5732 5730 5730 5730 5730 5730 5729 5729 5729 5728 5727 5726 5725 5725 5724 5724 5723 5722 5722 5722 5721 5721 5721 5719 5720 5721 5721 5720 5721 5722 5724 5725 5727 5728 5729 5731 5733 5738 5743 5749 5755 5756 5756 5759 5761 5764 5766 5768 5771 5773 5775 5777 5781 5785 5788 5791 5793 5795 5798 5801 5803 5805 5807 5810 5813 5815 5817 5818 5820 5823 5825 5827 5828 5830 5832 5833 5834 5835 5836 5837 5838 5840 5842 5844
5740 5739 5739 5738 5737 5736 5735 5735 5734 5733 5733 5732 5732 5732 5731 5729 5729 5729 5729 5729 5728 5727 5726 5725 5724 5723 5722 5721 5720 5720 5719 5718 5717 5716 5716 5717 5716 5716 5716 5715 5716 5717 5718 5719 5721 5722 5724 5725 5726 5728 5732 5737 5744 5748 5749 5751 5754 5756 5759 5761 5764 5765 5767 5769 5771 5776 5781 5784 5786 5789 5791 5794 5797 5799 5801 5803 5806 5809 5812 5814 5815 5817 5819 5821 5824 5825 5827 5829 5830 5831 5832 5833 5835 5836 5838 5840 5842
5739 5739 5739 5737 5736 5735 5734 5734 5733 5733 5732 5732 5732 5731 5730 5729 5728 5728 5728 5727 5727 5726 5725 5724 5722 5721 5720 5719 5718 5716 5715 5714 5712 5712 5711 5711 5711 5711 5711 5711 5712 5713 5714 5715 5716 5718 5720 5720 5721 5724 5726 5729 5736 5740 5742 5744 5746 5749 5753 5755 5758 5760 5763 5765 5767 5772 5776 5779 5782 5784 5786 5789 5793 5796 5797 5799 5803 5806 5808 5811 5813 5815 5816 5818 5820 5822 5823 5824 5826 5828 5829 5830 5832 5834 5836 5838 5839
5739 5738 5738 5737 5736 5736 5734 5734 5733 5732 5732 5732 5731 5730 5730 5729 5728 5727 5727 5726 5725 5724 5723 5722 5720 5719 5717 5716 5715 5714 5712 5710 5709 5707 5706 5706 5706 5706 5707 5707 5708 5709 5710 5709 5711 5713 5715 5716 5717 5719 5720 5722 5728 5733 5736 5738 5740 5742 5747 5750 5753 5757 5760 5763 5765 5767 5770 5773 5776 5780 5782 5785 5789 5793 5794 5796 5799 5802 5805 5808 5810 5812 5813 5814 5816 5817 5819 5820 5821 5823 5825 5827 5828 5830 5832 5834 5835
5738 5738 5737 5737 5736 5735 5734 5733 5733 5732 5731 5731 5730 5730 5729 5728 5727 5726 5725 5725 5724 5723 5721 5720 5718 5716 5715 5713 5711 5710 5709 5707 5705 5704 5703 5701 5701 5701 5702 5702 5703 5704 5704 5704 5706 5708 5710 5712 5713 5714 5714 5716 5721 5726 5729 5732 5735 5737 5740 5745 5749 5753 5756 5758 5760 5761 5764 5766 5769 5774 5778 5781 5785 5789 5792 5794 5797 5799 5802 5805 5807 5809 5810 5811 5812 5813 5814 5816 5816 5817 5820 5822 5824 5826 5828 5830 5832
5737 5737 5736 5736 5735 5734 5734 5733 5732 5732 5731 5730 5729 5729 5728 5727 5726 5724 5724 5723 5722 5721 5719 5718 5716 5714 5712 5710 5708 5707 5705 5704 5702 5701 5699 5698 5696 5696 5696 5696 5697 5698 5699 5700 5701 5702 5704 5706 5707 5708 5709 5710 5715 5720 5723 5725 5728 5731 5735 5740 5744 5745 5747 5750 5751 5754 5758 5762 5764 5768 5773 5778 5781 5784 5788 5792 5795 5797 5799 5801 5803 5805 5806 5807 5808 5809 5811 5812 5814 5817 5820 5824 5826 5827 5828 5829 5830
5736 5736 5735 5735 5734 5733 5733 5732 5732 5732 5731 5729 5728 5727 5727 5726 5724 5723 5722 5721 5720 5719 5718 5716 5714 5712 5709 5708 5706 5705 5703 5701 5700 5698 5696 5694 5693 5692 5691 5691 5691 5692 5693 5694 5695 5697 5699 5700 5702 5703 5704 5705 5708 5714 5718 5720 5722 5725 5729 5733 5736 5737 5740 5743 5744 5746 5752 5757 5761 5763 5767 5772 5777 5780 5784 5788 5792 5794 5795 5795 5797 5799 5801 5802 5804 5807 5810 5811 5814 5818 5822 5824 5826 5828 5829 5830 5831
5735 5735 5734 5734 5733 5733 5732 5732 5731 5731 5730 5729 5727 5726 5726 5724 5723 5722 5720 5719 5718 5717 5716 5713 5711 5709 5707 5705 5704 5702 5700 5698 5697 5695 5693 5690 5689 5687 5686 5685 5685 5685 5686 5688 5689 5691 5692 5694 5696 5697 5698 5700 5703 5707 5712 5716 5718 5720 5723 5727 5729 5731 5735 5739 5740 5742 5746 5751 5756 5759 5762 5767 5771 5775 5778 5782 5785 5788 5789 5787 5788 5791 5795 5799 5802 5804 5805 5806 5809 5813 5815 5817 5819 5821 5823 5826 5828
5734 5734 5733 5733 5733 5732 5732 5731 5731 5730 5729 5728 5726 5725 5724 5723 5722 5720 5718 5717 5716 5715 5713 5711 5708 5707 5705 5703 5702 5700 5698 5696 5693 5691 5689 5686 5684 5683 5682 5680 5679 5678 5679 5680 5681 5683 5685 5687 5690 5691 5692 5695 5698 5702 5706 5711 5714 5716 5718 5721 5723 5727 5730 5733 5736 5738 5741 5746 5751 5754 5756 5760 5765 5769 5772 5775 5778 5782 5783 5784 5785 5786 5789 5793 5797 5798 5799 5800 5803 5805 5807 5810 5812 5814 5817 5819 5822
5732 5732 5732 5732 5732 5731 5731 5730 5729 5729 5728 5727 5726 5724 5722 5721 5720 5719 5716 5716 5715 5713 5712 5709 5707 5705 5704 5702 5700 5698 5695 5693 5690 5688 5685 5682 5680 5678 5676 5675 5674 5672 5671 5672 5674 5676 5678 5681 5683 5685 5687 5690 5692 5696 5700 5704 5708 5711 5713 5715 5717 5721 5725 5728 5732 5735 5737 5742 5747 5749 5751 5754 5760 5764 5767 5769 5771 5773 5775 5776 5779 5781 5784 5786 5788 5791 5794 5796 5799 5802 5803 5805 5808 5811 5814 5816 5818
5731 5731 5731 5731 5730 5730 5729 5729 5728 5728 5727 5726 5725 5723 5720 5719 5718 5716 5715 5714 5713 5712 5711 5709 5706 5704 5702 5699 5697 5695 5692 5690 5688 5685 5682 5678 5675 5673 5671 5670 5668 5666 5664 5664 5666 5668 5671 5674 5676 5679 5682 5684 5685 5690 5694 5697 5700 5703 5707 5710 5712 5715 5719 5723 5726 5730 5733 5737 5742 5745 5748 5751 5755 5759 5762 5763 5764 5765 5766 5769 5772 5776 5781 5783 5784 5787 5790 5792 5796 5799 5800 5802 5806 5809 5811 5813 5815
5730 5729 5729 5729 5729 5728 5728 5727 5727 5727 5726 5724 5724 5722 5718 5717 5716 5714 5713 5712 5711 5710 5708 5707 5705 5702 5699 5697 5694 5692 5689 5687 5684 5681 5678 5674 5671 5668 5666 5664 5662 5660 5658 5656 5658 5661 5665 5668 5671 5674 5677 5679 5681 5685 5688 5690 5692 5695 5700 5704 5707 5710 5713 5717 5720 5724 5728 5733 5737 5741 5745 5748 5750 5753 5757 5758 5758 5759 5760 5764 5770 5773 5776 5779 5782 5785 5787 5789 5792 5795 5797 5799 5803 5805 5807 5809 5812
5728 5728 5728 5727 5727 5727 5726 5726 5725 5725 5724 5723 5721 5719 5716 5715 5714 5711 5710 5710 5708 5707 5705 5703 5701 5698 5695 5693 5691 5688 5686 5683 5680 5677 5673 5670 5667 5663 5660 5658 5657 5655 5652 5651 5652 5656 5660 5663 5667 5670 5673 5674 5677 5680 5682 5684 5687 5690 5694 5699 5703 5706 5709 5713 5716 5720 5724 5729 5733 5737 5741 5743 5746 5748 5751 5752 5754 5755 5756 5760 5765 5769 5771 5773 5776 5780 5782 5786 5789 5791 5793 5796 5799 5801 5804 5805 5808